FW7772 Weather Reports


Display with metric or nautical units.
time (UTC)temp
F
wind
direction
speed
MPH
gust
MPH
rain 1hr
in
rain 24hr
in
rain mn
in
humidity
%
barometer
mb
20260507215340 32 314 3.0 5.0 0.00 0.00 0.00 59 1021.1
20260507214815 33 314 3.0 4.0 0.00 0.00 0.00 58 1021.1
20260507213338 33 324 2.0 4.0 0.00 0.00 0.00 58 1021.1
20260507212814 34 310 2.0 3.0 0.00 0.00 0.00 56 1020.8
20260507211338 34 310 3.0 4.0 0.00 0.00 0.00 55 1020.5
20260507210337 35 310 2.0 4.0 0.00 0.00 0.00 55 1020.3
20260507205336 36 317 2.0 4.0 0.00 0.00 0.00 55 1020.2
20260507204819 37 327 2.0 4.0 0.00 0.00 0.00 54 1020.1
20260507203335 37 310 3.0 4.0 0.00 0.00 0.00 52 1020.1
20260507202334 38 310 3.0 4.0 0.00 0.00 0.00 50 1019.9
20260507201334 39 286 2.0 5.0 0.00 0.00 0.00 51 1019.7
20260507200336 40 305 3.0 4.0 0.00 0.00 0.00 47 1019.5
20260507195334 41 310 4.0 7.0 0.00 0.00 0.00 45 1019.5
20260507194334 42 326 3.0 5.0 0.00 0.00 0.00 42 1019.3
20260507193334 44 332 2.0 4.0 0.00 0.00 0.00 40 1019.2
20260507192334 46 314 2.0 3.0 0.00 0.00 0.00 40 1019.1
20260507191334 47 314 2.0 3.0 0.00 0.00 0.00 40 1019.0
20260507190334 49 314 3.0 4.0 0.00 0.00 0.00 35 1018.9
20260507185334 51 316 3.0 4.0 0.00 0.00 0.00 33 1018.8
20260507184334 52 316 2.0 3.0 0.00 0.00 0.00 31 1018.7
20260507183334 53 316 2.0 3.0 0.00 0.00 0.00 30 1018.5
20260507182821 53 316 2.0 4.0 0.00 0.00 0.00 30 1018.5
20260507181334 53 316 3.0 4.0 0.00 0.00 0.00 25 1018.4
20260507180821 53 318 3.0 4.0 0.00 0.00 0.00 24 1018.3
20260507175334 53 310 4.0 5.0 0.00 0.00 0.00 22 1018.1
20260507174334 53 300 4.0 6.0 0.00 0.00 0.00 21 1018.0
20260507173817 54 352 4.0 8.0 0.00 0.00 0.00 21 1017.9
20260507172337 55 317 3.0 7.0 0.00 0.00 0.00 20 1017.8
20260507172249 55 342 4.0 8.0 0.00 0.00 0.00 19 1017.7
20260507170337 55 300 4.0 9.0 0.00 0.00 0.00 20 1017.7
20260507165334 55 351 4.0 9.0 0.00 0.00 0.00 18 1017.6
20260507164331 55 305 5.0 9.0 0.00 0.00 0.00 18 1017.4
20260507163331 55 293 7.0 12.0 0.00 0.00 0.00 19 1017.4
20260507162321 55 268 3.0 9.0 0.00 0.00 0.00 18 1017.3
20260507161319 55 325 6.0 13.0 0.00 0.00 0.00 22 1017.3
20260507160313 53 317 7.0 11.0 0.00 0.00 0.00 21 1017.2
20260507155315 55 282 7.0 13.0 0.00 0.00 0.00 18 1017.2
20260507154314 55 278 8.0 13.0 0.00 0.00 0.00 19 1017.1
20260507153314 56 349 6.0 12.0 0.00 0.00 0.00 17 1017.2
20260507152313 56 337 7.0 12.0 0.00 0.00 0.00 15 1017.1
20260507151313 56 300 3.0 8.0 0.00 0.00 0.00 15 1017.0
20260507150315 56 188 5.0 12.0 0.00 0.00 0.00 15 1016.9
20260507145313 55 226 7.0 13.0 0.00 0.00 0.00 15 1017.0
20260507144801 56 295 8.0 16.0 0.00 0.00 0.00 17 1016.9
20260507143743 56 322 4.0 12.0 0.00 0.00 0.00 16 1016.8
20260507142307 56 247 5.0 12.0 0.00 0.00 0.00 16 1016.8
20260507141747 57 291 5.0 12.0 0.00 0.00 0.00 13 1016.7
20260507140308 55 263 7.0 15.0 0.00 0.00 0.00 15 1016.8
20260507135307 56 270 6.0 16.0 0.00 0.00 0.00 16 1016.7
20260507134744 56 221 5.0 11.0 0.00 0.00 0.00 17 1016.7
20260507133307 56 300 7.0 13.0 0.00 0.00 0.00 19 1016.8
20260507132309 54 235 7.0 15.0 0.00 0.00 0.00 21 1016.7
20260507131745 56 317 5.0 12.0 0.00 0.00 0.00 19 1016.6
20260507130307 53 274 9.0 15.0 0.00 0.00 0.00 20 1016.6
20260507125307 55 293 4.0 13.0 0.00 0.00 0.00 19 1016.5
20260507124307 55 257 7.0 13.0 0.00 0.00 0.00 14 1016.5
20260507123308 55 258 4.0 14.0 0.00 0.00 0.00 18 1016.5